Theta_e
328 327 329 332 338 336 339 339 339 341 339 335 325 329 332 332 335 343 332 335 336 328 331 335 334 330 331 335 336 335 334 333 330 329 328 328 328 327 327 328 327 328 328 329 328 327 327 327 328
326 326 329 334 336 339 337 337 340 340 340 336 330 335 336 339 334 333 334 335 333 327 334 334 335 332 331 332 335 335 335 333 330 329 329 328 328 328 327 327 328 328 327 327 327 327 327 326 326
325 325 331 335 336 336 337 336 338 340 338 338 338 336 338 339 332 333 334 335 328 332 336 335 332 332 333 327 334 336 335 333 330 329 329 329 328 328 328 328 328 328 328 327 327 326 326 324 322
326 328 329 335 336 334 334 336 336 341 339 338 339 340 333 331 332 333 335 332 329 333 335 332 332 334 335 333 332 336 335 332 330 329 329 329 329 328 328 328 328 327 327 327 327 326 325 324 323
325 329 334 335 334 334 334 333 337 341 340 341 337 340 337 331 332 333 333 329 332 333 334 336 335 337 336 335 332 336 334 332 329 329 329 328 329 323 325 324 323 322 324 325 324 323 324 324 324
329 329 334 335 333 332 332 333 338 340 340 340 339 338 335 331 332 333 330 329 334 333 333 337 335 336 336 332 333 336 335 332 329 328 329 328 326 320 322 322 320 320 321 322 324 325 326 326 327
329 331 332 333 333 333 332 333 339 341 340 341 338 340 336 331 332 333 330 329 333 332 332 337 336 334 333 335 336 336 334 329 323 325 326 325 321 321 321 320 319 320 323 325 326 326 327 327 328
328 330 332 331 332 333 331 335 336 339 340 335 336 341 341 330 331 333 331 329 331 331 330 333 337 336 336 336 335 335 328 317 317 320 320 318 319 320 319 319 321 323 325 326 327 328 328 328 327
325 332 332 331 331 330 331 335 335 334 338 337 336 335 333 330 331 332 331 329 331 331 330 330 332 335 336 334 332 324 318 317 320 320 320 320 323 321 321 322 324 326 327 327 328 329 329 328 327
330 333 331 329 329 330 329 328 333 338 338 339 338 331 330 331 332 331 331 329 329 331 331 329 328 328 328 327 325 325 325 324 324 324 322 322 322 324 326 325 326 327 327 328 329 329 327 325 322
330 334 330 329 328 327 327 327 327 336 340 338 340 336 332 331 330 330 329 329 330 330 331 330 328 326 325 325 325 325 324 324 325 325 324 324 325 326 327 329 329 328 327 329 329 326 323 320 318
331 329 329 329 327 327 327 326 328 331 334 333 334 336 331 332 331 330 329 328 329 330 330 329 327 325 324 323 323 323 322 324 325 325 326 326 327 328 329 329 329 329 325 325 325 323 318 314 314
329 328 328 328 328 328 327 328 328 328 328 331 333 333 332 332 331 330 329 329 328 329 329 329 327 325 324 322 320 321 322 325 326 326 327 326 327 329 329 329 326 324 323 322 322 318 312 310 311
323 326 327 328 328 328 328 328 327 326 325 326 332 333 333 333 332 330 329 328 327 327 327 328 327 325 323 321 321 322 324 327 327 327 327 327 328 328 328 325 323 323 322 322 320 313 307 308 311
319 323 323 324 328 330 328 330 330 326 326 330 332 333 332 333 331 330 329 328 326 326 327 327 327 326 323 321 322 324 326 327 328 328 327 327 326 325 324 322 322 322 320 318 315 307 304 308 310
318 320 323 320 324 328 328 335 330 327 326 328 331 333 332 332 330 330 329 327 326 326 326 326 328 327 324 321 322 325 327 327 326 326 324 324 323 323 323 322 322 320 317 310 305 304 302 308 309
314 316 320 320 321 327 330 331 328 328 328 329 329 334 332 332 329 329 328 327 327 326 326 326 329 327 325 320 323 326 324 325 325 323 322 322 322 322 322 322 320 313 309 305 301 300 300 307 306
312 313 313 315 318 324 327 328 327 327 328 329 329 333 334 331 330 328 328 328 327 327 328 328 330 327 326 322 321 322 325 324 323 322 321 321 321 321 321 318 309 304 301 300 299 298 299 305 303
310 313 316 315 317 321 322 325 325 327 329 330 329 332 335 333 329 328 328 329 328 329 329 329 328 327 325 320 319 319 320 318 318 318 318 318 318 317 313 308 302 299 299 299 298 298 297 304 301
308 310 313 313 314 317 318 320 320 319 322 328 330 332 334 333 330 327 328 328 327 328 328 327 327 327 324 321 320 319 320 314 314 314 313 312 311 309 305 301 299 300 303 305 304 301 296 294 297
307 308 308 314 313 315 317 321 321 320 319 321 326 330 332 333 332 327 327 327 327 328 327 327 327 326 323 322 323 319 314 309 306 306 305 303 303 301 298 298 303 308 307 303 299 295 294 293 295
311 307 307 308 313 318 317 321 316 318 320 320 323 328 332 333 332 327 326 326 327 327 328 328 327 326 323 326 324 323 319 307 301 300 299 297 296 296 300 306 307 304 297 293 291 290 291 294 295
309 307 307 309 313 312 312 322 318 316 318 320 321 329 331 332 331 329 326 326 327 327 327 328 327 324 323 323 323 318 311 306 301 298 295 295 298 303 305 304 299 292 290 289 289 289 289 289 290
308 310 311 312 313 315 313 315 317 318 317 319 324 327 330 333 331 329 324 323 322 321 321 324 323 320 322 322 319 315 311 303 297 294 296 298 300 301 299 296 291 289 288 288 287 287 287 287 287
310 311 311 314 314 315 312 317 319 315 316 318 323 326 328 332 330 319 316 317 314 314 317 321 322 319 318 317 314 310 305 299 296 297 301 301 299 295 290 289 288 287 286 286 286 285 285 285 284
312 313 312 314 314 316 318 324 321 320 319 319 320 324 327 330 323 317 315 313 312 311 312 313 313 311 310 308 305 303 302 298 299 302 301 300 297 291 288 287 286 286 285 285 284 284 284 283 283
313 313 311 315 314 317 318 321 321 317 317 316 321 322 328 327 322 319 313 310 308 307 307 308 307 305 303 304 303 301 300 299 300 301 298 296 291 287 287 286 285 285 284 284 284 283 282 282 281
313 309 316 316 320 321 320 322 321 318 316 312 313 324 326 321 318 313 309 307 306 304 304 304 303 301 300 299 299 299 300 301 299 299 295 290 289 287 285 285 284 284 283 283 283 282 281 281 280
311 313 313 314 320 321 320 321 314 313 312 312 312 321 316 314 311 307 305 302 301 300 301 299 299 298 297 298 298 299 297 296 296 294 290 288 287 286 285 284 283 283 282 282 282 281 280 280 279
311 312 314 316 322 319 321 321 312 309 310 314 308 307 308 307 305 302 300 298 298 297 296 296 295 295 296 296 298 293 295 294 292 288 287 286 286 284 284 283 283 282 282 281 281 280 280 280 279
Wind_Speed
18 9 3 3 5 5 9 5 3 8 8 4 10 5 4 3 2 2 9 10 18 22 21 18 18 17 20 18 17 17 15 14 14 14 14 13 13 12 11 11 11 10 11 10 10 10 9 9 9
14 5 2 2 6 8 8 4 8 7 6 10 9 7 5 2 3 7 11 11 21 21 20 19 18 19 19 20 18 18 16 14 14 14 14 13 12 11 11 10 10 10 10 10 9 9 8 8 8
7 3 3 3 5 10 6 6 6 2 10 8 7 2 3 3 4 16 6 20 21 20 19 18 18 18 20 20 19 19 18 13 14 14 14 13 12 11 10 9 10 10 10 10 10 10 10 10 9
4 2 3 5 10 9 7 3 4 9 5 6 3 5 3 1 7 14 20 22 21 19 17 17 16 17 21 23 21 21 20 13 15 14 14 13 12 11 10 9 9 10 10 10 10 10 11 11 10
1 2 5 6 12 6 7 6 7 12 5 8 8 5 3 5 9 17 24 23 21 19 16 13 15 15 23 25 22 22 19 13 14 14 14 12 10 9 10 10 10 9 10 9 9 9 10 10 9
3 2 6 11 14 6 8 6 7 12 7 5 6 7 5 7 16 22 24 22 19 19 17 13 17 20 24 23 23 23 18 13 15 15 14 13 11 10 10 10 9 9 9 8 8 8 8 8 8
6 6 9 11 11 8 8 5 10 13 10 8 1 7 4 11 15 24 23 22 19 18 18 15 16 19 22 23 24 22 18 14 14 15 14 13 11 11 10 10 9 9 8 7 7 6 7 8 8
4 5 10 10 12 14 3 4 5 12 10 2 6 6 5 18 20 24 23 20 18 18 17 18 16 19 22 25 23 19 14 14 16 15 14 13 12 11 10 10 8 7 6 6 5 6 7 6 8
2 8 12 17 15 11 3 5 3 3 5 5 8 2 2 26 25 25 24 22 19 19 19 17 18 16 16 16 17 15 15 15 15 14 13 12 9 9 8 8 7 6 5 4 4 5 7 8 10
10 13 20 12 14 10 5 5 5 4 7 7 6 3 10 27 27 28 28 26 24 22 22 19 17 17 16 14 16 14 14 13 13 11 12 10 9 8 8 7 6 5 4 4 4 6 8 9 7
6 17 16 14 12 8 5 5 4 8 8 13 14 13 19 25 25 26 26 25 26 24 20 20 18 16 15 14 14 14 14 13 12 12 12 10 9 8 6 5 4 3 5 4 5 7 8 8 7
13 12 15 17 11 7 9 4 5 10 16 4 5 14 19 21 24 30 27 26 28 26 23 21 19 17 15 14 14 13 13 13 13 12 11 10 9 8 6 5 5 4 3 2 4 5 7 7 7
17 15 14 16 18 18 19 18 17 12 15 12 3 17 21 20 25 27 25 24 25 25 24 21 20 18 15 14 14 13 13 13 12 12 11 10 9 8 7 6 4 2 0 2 3 3 4 5 7
10 12 12 15 19 18 17 19 17 14 15 12 11 17 19 22 26 26 27 27 27 27 25 22 21 19 17 15 14 14 13 12 11 11 10 9 9 9 8 6 4 3 2 3 3 3 4 5 6
12 18 18 19 13 15 16 27 28 16 12 9 12 13 17 20 26 30 29 29 30 27 27 24 21 18 17 17 16 15 14 12 10 9 9 8 9 9 8 4 3 3 2 2 2 3 4 5 7
8 13 17 13 20 15 12 26 21 21 17 17 14 13 16 20 27 27 26 27 26 26 26 26 22 19 17 16 16 15 13 12 12 12 8 11 11 9 9 7 6 4 4 1 2 3 4 6 7
11 15 17 15 16 15 24 23 17 16 15 18 16 15 15 17 22 27 28 27 27 26 27 27 24 22 18 15 15 13 14 15 15 15 12 11 11 10 9 9 7 4 2 3 5 7 5 6 7
10 14 17 20 14 9 24 26 21 16 22 21 17 16 16 18 22 28 27 26 25 25 24 26 25 23 20 17 16 16 17 17 17 17 16 15 13 12 11 8 5 4 4 6 7 9 9 11 9
18 19 21 18 13 13 14 15 14 17 19 22 23 18 17 19 18 24 27 28 26 25 25 28 28 25 23 20 19 18 20 17 16 16 16 15 14 12 9 7 7 7 8 9 8 8 10 10 13
18 18 19 16 19 21 21 26 18 17 16 21 21 21 19 16 18 22 29 29 28 28 26 28 28 27 25 21 19 19 22 18 18 17 14 13 12 11 11 10 11 12 10 7 5 4 2 7 4
18 19 18 13 15 21 16 25 23 17 21 21 24 22 20 20 18 18 25 31 29 28 29 29 29 28 27 25 29 24 21 18 16 16 16 14 14 13 14 15 13 9 5 3 3 3 5 7 7
16 16 17 18 11 10 8 20 25 22 23 25 24 25 22 19 18 17 20 27 31 30 29 29 29 28 26 34 33 33 30 20 15 20 19 18 17 17 15 12 8 6 6 7 9 9 8 6 5
11 13 15 16 15 13 16 11 15 19 25 24 25 27 26 20 19 19 19 28 29 26 26 27 28 28 33 37 36 34 22 21 25 24 23 20 19 17 13 10 9 11 12 12 13 12 12 12 10
10 9 12 15 13 13 20 15 21 17 24 24 22 24 23 19 20 20 19 23 22 22 22 28 29 27 34 35 34 34 31 29 30 27 24 21 19 16 14 15 15 13 13 13 14 13 14 13 13
11 8 4 6 7 12 16 16 25 17 25 27 25 23 22 20 20 15 16 19 21 22 26 30 31 30 32 33 32 31 28 30 34 33 27 22 18 18 17 16 15 15 15 15 14 13 14 13 13
8 6 5 8 9 12 9 6 8 3 11 17 20 24 28 26 20 19 17 20 24 22 25 28 30 29 29 29 28 28 29 32 33 29 26 25 23 20 17 16 16 16 15 15 13 14 13 12 13
3 6 4 6 15 11 10 11 10 4 5 10 17 21 23 23 22 20 16 23 23 25 25 25 26 25 26 27 27 30 36 34 37 31 26 27 23 19 17 16 16 15 15 13 13 14 12 11 11
5 3 5 4 6 12 9 8 9 11 16 14 16 21 15 16 16 16 15 20 21 24 26 22 24 26 28 29 30 36 33 34 31 32 28 26 22 19 17 17 16 15 14 13 12 12 10 10 9
3 4 4 4 7 5 7 4 2 9 13 16 10 11 14 15 14 13 14 21 22 23 33 26 28 30 30 32 33 33 33 32 30 31 27 24 22 20 18 17 16 14 13 12 11 10 9 9 8
3 9 5 5 4 5 2 3 5 9 12 11 4 3 8 12 14 14 15 23 24 24 29 27 27 30 33 36 36 29 33 30 29 26 24 22 21 19 18 16 15 13 12 10 9 8 8 7 5
Wind_Direction
349 345 312 246 235 240 230 213 275 161 168 131 143 190 201 5 203 355 139 153 155 155 160 163 165 164 166 164 162 160 147 137 132 131 130 127 122 119 114 108 103 98 93 89 87 80 76 77 76
343 339 262 251 247 226 214 219 213 175 120 144 148 142 182 150 112 122 144 163 156 154 157 163 166 168 169 171 166 164 149 144 136 136 135 132 127 123 117 113 108 103 95 91 85 81 79 75 74
327 339 265 250 239 235 244 207 213 135 144 168 151 260 149 140 141 154 149 154 156 156 159 167 170 174 174 173 169 166 152 153 142 141 138 135 132 131 126 119 112 105 98 90 84 77 73 73 71
321 207 175 245 235 248 257 352 201 162 204 219 208 164 154 236 158 167 152 155 157 159 162 168 173 182 180 177 171 167 161 158 146 145 143 140 140 135 129 119 112 107 101 96 89 82 75 71 67
356 228 242 242 249 260 256 270 210 202 191 190 207 164 144 134 147 155 154 156 159 160 160 159 164 168 172 173 171 168 167 157 144 146 147 147 144 135 130 125 119 113 105 96 87 78 71 64 56
198 257 233 241 239 254 262 244 210 222 215 172 207 166 131 139 155 159 158 159 161 162 160 155 158 157 161 166 169 164 164 158 151 155 155 156 155 142 135 129 121 113 105 95 85 74 65 54 40
235 212 237 244 258 272 247 196 210 215 212 211 330 185 119 165 168 163 164 161 162 166 162 158 149 158 161 162 161 162 166 164 165 162 163 163 157 149 142 134 126 117 106 93 75 55 41 32 29
247 236 216 226 237 253 251 205 293 216 216 92 190 206 190 180 168 165 165 165 164 168 170 166 155 155 155 161 169 174 173 170 166 163 164 162 157 150 144 135 127 115 102 85 59 41 39 31 20
214 229 231 224 214 225 176 202 150 347 227 203 196 265 355 159 161 166 169 170 172 172 177 175 169 168 162 160 171 173 171 167 164 164 166 157 151 147 141 146 131 117 96 62 37 32 28 16 360
218 230 235 234 226 226 202 245 222 191 210 233 208 156 143 158 165 173 178 178 180 178 179 180 178 173 169 167 165 166 166 164 164 164 164 160 157 157 149 146 136 114 79 54 32 21 14 19 12
218 241 241 243 231 222 235 242 218 225 220 232 226 186 162 169 172 185 186 187 183 184 178 181 181 180 175 174 171 171 170 169 171 168 166 166 162 159 152 148 130 102 73 51 34 23 21 17 25
249 241 255 243 238 237 230 245 229 240 248 168 224 178 174 180 183 189 191 186 186 183 188 183 183 181 181 179 178 178 175 173 170 173 173 171 166 161 156 149 125 104 79 20 28 18 19 33 45
249 253 255 254 254 252 261 251 258 249 257 242 200 167 182 191 192 192 195 191 190 188 186 187 184 183 184 180 180 178 178 175 177 174 178 173 172 166 159 147 120 99 9 339 1 13 29 56 61
314 288 278 263 254 252 253 251 243 242 262 237 187 188 188 196 198 189 191 194 192 192 190 191 190 185 182 183 180 177 176 178 176 181 180 177 173 170 162 148 153 213 275 315 310 27 46 72 85
283 277 276 254 257 248 261 255 242 246 239 231 223 198 195 197 196 203 194 194 190 191 191 190 191 191 187 184 180 177 176 177 180 179 175 176 180 181 187 172 196 235 290 354 22 42 67 85 94
274 268 256 248 244 241 224 257 241 231 239 242 228 212 202 200 197 207 203 195 193 188 190 194 190 192 190 186 180 177 177 176 177 174 159 177 190 194 192 204 222 234 231 187 84 76 67 96 113
241 256 249 248 243 242 222 258 248 234 229 238 235 215 209 204 200 201 201 195 191 192 186 189 189 189 186 182 177 169 171 178 180 179 185 184 197 200 198 208 212 214 177 95 86 85 99 108 106
256 257 253 251 261 279 253 250 251 253 231 232 236 223 212 210 208 195 192 194 191 193 188 187 186 187 179 169 168 173 174 175 175 177 179 187 194 198 196 192 179 150 129 115 100 88 95 118 111
275 273 271 274 281 302 279 286 294 263 237 236 236 226 216 215 204 201 198 194 192 196 191 188 183 183 175 172 167 169 165 169 171 173 176 183 184 185 181 164 142 125 110 108 116 100 89 109 130
260 264 270 288 265 269 277 276 261 268 273 257 237 230 218 211 198 192 197 195 194 189 188 186 186 180 180 180 181 178 177 172 173 172 171 172 172 166 160 146 133 124 117 109 96 104 121 81 137
248 249 260 251 294 282 283 273 265 249 252 250 255 243 223 208 194 186 197 195 191 191 188 187 187 184 185 180 187 181 170 162 162 163 161 157 158 153 146 139 134 127 112 93 62 72 133 127 65
269 253 255 256 268 263 237 267 254 244 247 237 235 238 230 211 197 182 190 199 188 192 190 189 188 186 184 196 192 190 182 170 177 165 158 149 144 138 133 126 112 99 95 99 93 84 89 106 114
255 263 261 257 248 287 272 265 264 246 245 247 232 224 222 210 194 186 187 198 186 188 188 188 187 181 191 195 199 190 176 178 170 160 152 143 135 131 123 113 105 106 101 99 93 85 82 82 81
271 288 272 257 249 253 260 248 272 248 249 240 234 219 217 201 196 192 180 172 172 169 169 176 174 182 195 197 198 194 188 175 157 147 139 133 131 127 121 115 113 115 109 102 97 92 87 83 82
250 269 279 235 218 256 255 253 247 251 240 232 218 207 207 197 183 162 161 167 163 168 177 180 185 182 190 194 195 193 182 164 153 149 145 140 129 118 115 122 128 119 113 106 101 95 88 84 82
207 214 252 291 245 272 196 247 252 255 293 282 268 213 198 184 176 170 168 166 164 163 176 178 180 177 183 187 179 173 168 154 148 156 152 140 132 129 132 131 126 120 114 108 106 98 91 87 84
135 210 257 266 259 273 256 246 284 328 320 313 282 250 202 179 178 166 164 160 146 160 165 167 168 166 173 172 162 154 154 157 156 148 144 132 127 134 136 135 129 121 115 115 110 102 98 92 84
225 345 271 211 248 234 231 240 243 337 316 312 323 232 184 168 167 153 149 139 149 146 146 156 155 144 146 144 146 153 156 151 151 139 133 128 138 143 142 136 130 126 123 117 112 107 102 92 85
213 248 218 259 244 257 270 238 47 295 292 284 302 210 158 148 143 135 121 127 127 131 129 137 138 137 135 142 141 143 147 146 138 129 133 140 143 147 145 140 134 129 124 119 114 112 109 98 87
286 275 239 259 334 250 306 284 20 320 305 260 103 20 119 123 127 121 121 124 120 116 117 126 127 129 138 142 135 140 136 135 130 133 136 142 145 146 143 138 135 130 126 122 118 118 111 104 97